,,,PA_Meas_PMT16A,,PR_Meas_QMR101_102,,RH_Meas_QMH101,,SR_Meas_QMS101,,TA_Meas_QMH101,,GenWind,,GenWind,
date,time,status,PA,status,PR,status,RH,status,SR,status,TA,status,DirAvg,status,SpdAvg,
2014-06-27, 00:00:04,VALID,1012,VALID,0,INVALID,109.674,VALID,0,VALID,24.0253,VALID,129,VALID,1.11016,
2014-06-27, 00:01:04,VALID,1012,VALID,0,INVALID,109.628,VALID,0,VALID,24.0058,VALID,158,VALID,1.29219,
2014-06-27, 00:02:04,VALID,1012,VALID,0,INVALID,109.613,VALID,0,VALID,24.0058,VALID,170,VALID,1.67578,
2014-06-27, 00:03:04,VALID,1011.97,VALID,0,INVALID,109.651,VALID,0,VALID,24.0058,VALID,143,VALID,0.710156,
2014-06-27, 00:04:04,VALID,1011.96,VALID,0,INVALID,109.658,VALID,0,VALID,23.9863,VALID,111,VALID,1.175,
2014-06-27, 00:05:04,VALID,1011.93,VALID,0,INVALID,109.674,VALID,0,VALID,24.0076,VALID,121,VALID,0.926953,
2014-06-27, 00:06:04,VALID,1011.93,VALID,0,INVALID,109.689,VALID,0.112112,VALID,23.9863,VALID,122,VALID,0.875781,
2014-06-27, 00:07:04,VALID,1011.93,VALID,0,INVALID,109.658,VALID,0.112112,VALID,24.0058,VALID,107,VALID,1.36758,
2014-06-27, 00:08:04,VALID,1011.91,VALID,0,INVALID,109.674,VALID,0,VALID,23.9863,VALID,101,VALID,1.18281,
2014-06-27, 00:09:04,VALID,1011.9,VALID,0,INVALID,109.712,VALID,0,VALID,23.9881,VALID,101,VALID,1.34727,
2014-06-27, 00:10:04,VALID,1011.89,VALID,0,INVALID,109.666,VALID,0,VALID,23.9863,VALID,101,VALID,1.03906,
2014-06-27, 00:11:04,VALID,1011.88,VALID,0,INVALID,109.62,VALID,0,VALID,23.9668,VALID,101,VALID,0.924219,
2014-06-27, 00:12:04,VALID,1011.87,VALID,0,INVALID,109.597,VALID,0,VALID,23.9863,VALID,101,VALID,0.703516,
2014-06-27, 00:13:04,VALID,1011.82,VALID,0,INVALID,109.635,VALID,0,VALID,24.0076,VALID,99,VALID,0.889844,
2014-06-27, 00:14:04,VALID,1011.82,VALID,0,INVALID,109.643,VALID,0,VALID,23.9668,VALID,92,VALID,0.859375,
2014-06-27, 00:15:04,VALID,1011.82,VALID,0,INVALID,109.666,VALID,0,VALID,23.9668,VALID,101,VALID,0.380078,
2014-06-27, 00:16:04,VALID,1011.82,VALID,0,INVALID,109.681,VALID,0,VALID,23.9668,VALID,101,VALID,0.953516,
2014-06-27, 00:17:04,VALID,1011.81,VALID,0,INVALID,109.681,VALID,0,VALID,23.9686,VALID,101,VALID,0.823047,
2014-06-27, 00:18:04,VALID,1011.78,VALID,0,INVALID,109.643,VALID,0,VALID,23.9278,VALID,115,VALID,1.31797,
2014-06-27, 00:19:04,VALID,1011.78,VALID,0,INVALID,109.605,VALID,0,VALID,23.9278,VALID,123,VALID,0.853516,
2014-06-27, 00:20:04,VALID,1011.74,VALID,0,INVALID,109.658,VALID,0,VALID,23.9278,VALID,123,VALID,0.869922,
2014-06-27, 00:21:04,VALID,1011.77,VALID,0,INVALID,109.712,VALID,0,VALID,23.9084,VALID,123,VALID,0.798437,
2014-06-27, 00:22:04,VALID,1011.78,VALID,0,INVALID,109.757,VALID,0,VALID,23.9297,VALID,123,VALID,0.992969,
2014-06-27, 00:23:04,VALID,1011.77,VALID,0,INVALID,109.735,VALID,0,VALID,23.9297,VALID,122,VALID,0.640625,
2014-06-27, 00:24:04,VALID,1011.73,VALID,0,INVALID,109.727,VALID,0,VALID,23.8889,VALID,123,VALID,0.790625,
2014-06-27, 00:25:04,VALID,1011.72,VALID,0,INVALID,109.75,VALID,0,VALID,23.8694,VALID,123,VALID,0.898438,
2014-06-27, 00:26:04,VALID,1011.73,VALID,0,INVALID,109.742,VALID,0,VALID,23.8889,VALID,123,VALID,1.04648,
2014-06-27, 00:27:04,VALID,1011.72,VALID,0,INVALID,109.735,VALID,0,VALID,23.8907,VALID,123,VALID,0.635547,
2014-06-27, 00:28:04,VALID,1011.71,VALID,0,INVALID,109.803,VALID,0,VALID,23.8694,VALID,123,VALID,0.601563,
2014-06-27, 00:29:04,VALID,1011.7,VALID,0,INVALID,109.811,VALID,0,VALID,23.8499,VALID,123,VALID,0.923047,
2014-06-27, 00:30:04,VALID,1011.67,VALID,0,INVALID,109.841,VALID,0,VALID,23.8499,VALID,123,VALID,0.556641,
2014-06-27, 00:31:04,VALID,1011.68,VALID,0,INVALID,109.872,VALID,0,VALID,23.8499,VALID,123,VALID,0.164063,
2014-06-27, 00:32:04,VALID,1011.68,VALID,0,INVALID,109.879,VALID,0,VALID,23.8304,VALID,123,VALID,1.06289,
2014-06-27, 00:33:04,VALID,1011.71,VALID,0,INVALID,109.933,VALID,0,VALID,23.8304,VALID,123,VALID,0.924219,
2014-06-27, 00:34:04,VALID,1011.69,VALID,0,INVALID,109.925,VALID,0,VALID,23.8517,VALID,123,VALID,0.634375,
2014-06-27, 00:35:04,VALID,1011.63,VALID,0,INVALID,109.971,VALID,0,VALID,23.8304,VALID,123,VALID,0.841406,
2014-06-27, 00:36:04,VALID,1011.61,VALID,0,INVALID,110.032,VALID,0,VALID,23.8304,VALID,122,VALID,0.555078,
2014-06-27, 00:37:04,VALID,1011.58,VALID,0,INVALID,109.956,VALID,0,VALID,23.8304,VALID,94,VALID,1.09648,
2014-06-27, 00:38:04,VALID,1011.59,VALID,0,INVALID,109.895,VALID,0,VALID,23.8304,VALID,92,VALID,0.811719,
2014-06-27, 00:39:04,VALID,1011.63,VALID,0,INVALID,109.925,VALID,0,VALID,23.8517,VALID,92,VALID,1.16758,
2014-06-27, 00:40:04,VALID,1011.67,VALID,0,INVALID,109.979,VALID,0,VALID,23.8304,VALID,92,VALID,0.642187,
2014-06-27, 00:41:04,VALID,1011.63,VALID,0,INVALID,109.986,VALID,0,VALID,23.8304,VALID,92,VALID,0.826953,
2014-06-27, 00:42:04,VALID,1011.65,VALID,0,INVALID,109.986,VALID,0,VALID,23.8304,VALID,114,VALID,1.02461,
2014-06-27, 00:43:04,VALID,1011.61,VALID,0,INVALID,109.994,VALID,0,VALID,23.8517,VALID,114,VALID,0.637109,
2014-06-27, 00:44:04,VALID,1011.53,VALID,0,INVALID,110.047,VALID,0,VALID,23.8517,VALID,93,VALID,1.10742,
2014-06-27, 00:45:04,VALID,1011.51,VALID,0,INVALID,110.024,VALID,0,VALID,23.8517,VALID,93,VALID,0.710938,
2014-06-27, 00:46:04,VALID,1011.5,VALID,0,INVALID,110.024,VALID,0,VALID,23.8499,VALID,93,VALID,0.936719,
2014-06-27, 00:47:04,VALID,1011.5,VALID,0,INVALID,109.994,VALID,0,VALID,23.8109,VALID,93,VALID,0.257422,
2014-06-27, 00:48:04,VALID,1011.51,VALID,0,INVALID,110.001,VALID,0,VALID,23.8109,VALID,93,VALID,0.111328,
2014-06-27, 00:49:04,VALID,1011.5,VALID,0,INVALID,110.001,VALID,0,VALID,23.8304,VALID,93,VALID,0.289844,
2014-06-27, 00:50:04,VALID,1011.51,VALID,0,INVALID,110.078,VALID,0,VALID,23.8109,VALID,93,VALID,0.521875,
2014-06-27, 00:51:04,VALID,1011.47,VALID,0,INVALID,110.001,VALID,0,VALID,23.7914,VALID,93,VALID,0.196484,
2014-06-27, 00:52:04,VALID,1011.48,VALID,0,INVALID,110.024,VALID,0,VALID,23.8109,VALID,93,VALID,0.135937,
2014-06-27, 00:53:04,VALID,1011.49,VALID,0,INVALID,110.04,VALID,0,VALID,23.8127,VALID,93,VALID,0.620703,
2014-06-27, 00:54:04,VALID,1011.49,VALID,0,INVALID,110.078,VALID,0,VALID,23.7914,VALID,104,VALID,1.0625,
2014-06-27, 00:55:04,VALID,1011.5,VALID,0,INVALID,110.063,VALID,0,VALID,23.7914,VALID,97,VALID,0.904688,
2014-06-27, 00:56:04,VALID,1011.51,VALID,0,INVALID,110.063,VALID,0,VALID,23.7914,VALID,113,VALID,0.625391,
2014-06-27, 00:57:05,VALID,1011.53,VALID,0,INVALID,110.085,VALID,0,VALID,23.772,VALID,113,VALID,1.07656,
2014-06-27, 00:58:05,VALID,1011.5,VALID,0,INVALID,110.078,VALID,0,VALID,23.772,VALID,113,VALID,0.542578,
2014-06-27, 00:59:05,VALID,1011.49,VALID,0,INVALID,110.101,VALID,0,VALID,23.7932,VALID,113,VALID,0.730078,
2014-06-27, 01:00:05,VALID,1011.48,VALID,0,INVALID,110.124,VALID,0,VALID,23.772,VALID,112,VALID,0.951172,
2014-06-27, 01:01:05,VALID,1011.46,VALID,0,INVALID,110.116,VALID,0,VALID,23.7525,VALID,112,VALID,0.644922,
2014-06-27, 01:02:05,VALID,1011.48,VALID,0,INVALID,110.154,VALID,0,VALID,23.7525,VALID,112,VALID,0.863281,
2014-06-27, 01:03:05,VALID,1011.45,VALID,0,INVALID,110.169,VALID,0,VALID,23.7525,VALID,112,VALID,0.796094,
2014-06-27, 01:04:05,VALID,1011.39,VALID,0,INVALID,110.2,VALID,0,VALID,23.733,VALID,112,VALID,0.583203,
2014-06-27, 01:05:05,VALID,1011.39,VALID,0,INVALID,110.207,VALID,0,VALID,23.733,VALID,92,VALID,1.11875,
2014-06-27, 01:06:05,VALID,1011.39,VALID,0,INVALID,110.246,VALID,0,VALID,23.733,VALID,92,VALID,0.522656,
2014-06-27, 01:07:05,VALID,1011.39,VALID,0,INVALID,110.261,VALID,0,VALID,23.733,VALID,92,VALID,0,
2014-06-27, 01:08:05,VALID,1011.36,VALID,0,INVALID,110.268,VALID,0,VALID,23.7135,VALID,92,VALID,0.0378906,
2014-06-27, 01:09:05,VALID,1011.35,VALID,0,INVALID,110.276,VALID,0,VALID,23.7135,VALID,92,VALID,0.489453,
2014-06-27, 01:10:05,VALID,1011.35,VALID,0,INVALID,110.291,VALID,0,VALID,23.7135,VALID,92,VALID,0.388672,
2014-06-27, 01:11:05,VALID,1011.32,VALID,0,INVALID,110.284,VALID,0,VALID,23.7135,VALID,92,VALID,0,
2014-06-27, 01:12:05,VALID,1011.3,VALID,0,INVALID,110.329,VALID,0,VALID,23.7135,VALID,92,VALID,0.271875,
2014-06-27, 01:13:05,VALID,1011.27,VALID,0,INVALID,110.314,VALID,0,VALID,23.7135,VALID,92,VALID,0.598047,
2014-06-27, 01:14:05,VALID,1011.28,VALID,0,INVALID,110.329,VALID,0,VALID,23.7135,VALID,92,VALID,0.621484,
2014-06-27, 01:15:05,VALID,1011.25,VALID,0,INVALID,110.307,VALID,0,VALID,23.7135,VALID,92,VALID,0.979297,
2014-06-27, 01:16:05,VALID,1011.2,VALID,0,INVALID,110.352,VALID,0,VALID,23.694,VALID,92,VALID,0.995703,
2014-06-27, 01:17:05,VALID,1011.2,VALID,0,INVALID,110.345,VALID,0,VALID,23.694,VALID,92,VALID,1.14844,
2014-06-27, 01:18:05,VALID,1011.15,VALID,0,INVALID,110.39,VALID,0,VALID,23.6745,VALID,92,VALID,0.8625,
2014-06-27, 01:19:05,VALID,1011.15,VALID,0,INVALID,110.368,VALID,0,VALID,23.6745,VALID,92,VALID,1.10039,
2014-06-27, 01:20:05,VALID,1011.15,VALID,0,INVALID,110.39,VALID,0,VALID,23.6745,VALID,92,VALID,0.842188,
2014-06-27, 01:21:05,VALID,1011.14,VALID,0,INVALID,110.398,VALID,0,VALID,23.6745,VALID,92,VALID,0.622656,
2014-06-27, 01:22:05,VALID,1011.11,VALID,0,INVALID,110.398,VALID,0,VALID,23.655,VALID,92,VALID,1.14922,
2014-06-27, 01:23:05,VALID,1011.04,VALID,0,INVALID,110.413,VALID,0,VALID,23.655,VALID,92,VALID,0.813672,
2014-06-27, 01:24:05,VALID,1011.03,VALID,0,INVALID,110.436,VALID,0,VALID,23.655,VALID,92,VALID,1.14023,
2014-06-27, 01:25:05,VALID,1011.02,VALID,0,INVALID,110.398,VALID,0,VALID,23.655,VALID,91,VALID,1.16328,
2014-06-27, 01:26:05,VALID,1011.04,VALID,0,INVALID,110.436,VALID,0,VALID,23.655,VALID,91,VALID,0.433203,
2014-06-27, 01:27:05,VALID,1011.06,VALID,0,INVALID,110.436,VALID,0,VALID,23.6568,VALID,91,VALID,0.983984,
2014-06-27, 01:28:05,VALID,1011.05,VALID,0,INVALID,110.451,VALID,0,VALID,23.6373,VALID,91,VALID,0.483203,
2014-06-27, 01:29:05,VALID,1011.09,VALID,0,INVALID,110.467,VALID,0,VALID,23.6373,VALID,91,VALID,0.730078,
2014-06-27, 01:30:05,VALID,1011.08,VALID,0,INVALID,110.467,VALID,0.112112,VALID,23.5966,VALID,91,VALID,1.28555,
2014-06-27, 01:31:05,VALID,1011.14,VALID,0,INVALID,110.459,VALID,0,VALID,23.5966,VALID,91,VALID,0.625781,
2014-06-27, 01:32:05,VALID,1011.13,VALID,0,INVALID,110.467,VALID,0,VALID,23.5966,VALID,91,VALID,0.784375,
2014-06-27, 01:33:05,VALID,1011.19,VALID,0,INVALID,110.467,VALID,0,VALID,23.5771,VALID,91,VALID,0.940625,
2014-06-27, 01:34:05,VALID,1011.18,VALID,0,INVALID,110.467,VALID,0,VALID,23.5771,VALID,91,VALID,0.722656,
2014-06-27, 01:35:05,VALID,1011.2,VALID,0,INVALID,110.459,VALID,0,VALID,23.5771,VALID,91,VALID,0.675781,
2014-06-27, 01:36:05,VALID,1011.23,VALID,0,INVALID,110.482,VALID,0,VALID,23.5558,VALID,91,VALID,0.578516,
2014-06-27, 01:37:05,VALID,1011.23,VALID,0,INVALID,110.497,VALID,0,VALID,23.5576,VALID,91,VALID,0.520312,
2014-06-27, 01:38:05,VALID,1011.26,VALID,0,INVALID,110.505,VALID,0,VALID,23.5771,VALID,91,VALID,0.807031,
2014-06-27, 01:39:05,VALID,1011.29,VALID,0,INVALID,110.482,VALID,0,VALID,23.5771,VALID,91,VALID,0.695313,
2014-06-27, 01:40:05,VALID,1011.29,VALID,0,INVALID,110.505,VALID,0,VALID,23.5576,VALID,91,VALID,1.04258,
2014-06-27, 01:41:05,VALID,1011.33,VALID,0,INVALID,110.497,VALID,0,VALID,23.5381,VALID,91,VALID,0.987891,
2014-06-27, 01:42:05,VALID,1011.35,VALID,0,INVALID,110.505,VALID,0.112112,VALID,23.5576,VALID,91,VALID,0.566797,
2014-06-27, 01:43:05,VALID,1011.32,VALID,0,INVALID,110.474,VALID,0,VALID,23.5381,VALID,91,VALID,0.536719,
2014-06-27, 01:44:05,VALID,1011.34,VALID,0,INVALID,110.49,VALID,0,VALID,23.5381,VALID,91,VALID,0.954297,
2014-06-27, 01:45:05,VALID,1011.37,VALID,0,INVALID,110.49,VALID,0.112112,VALID,23.5381,VALID,91,VALID,0.682422,
2014-06-27, 01:46:05,VALID,1011.35,VALID,0,INVALID,110.49,VALID,0,VALID,23.5576,VALID,91,VALID,0.510938,
2014-06-27, 01:47:05,VALID,1011.32,VALID,0,INVALID,110.451,VALID,0,VALID,23.5576,VALID,91,VALID,0.732422,
2014-06-27, 01:48:05,VALID,1011.33,VALID,0,INVALID,110.451,VALID,0,VALID,23.5381,VALID,91,VALID,1.01133,
2014-06-27, 01:49:05,VALID,1011.29,VALID,0,INVALID,110.444,VALID,0,VALID,23.5381,VALID,91,VALID,0.335156,
2014-06-27, 01:50:05,VALID,1011.28,VALID,0,INVALID,110.421,VALID,0,VALID,23.5399,VALID,91,VALID,0.914063,
2014-06-27, 01:51:05,VALID,1011.27,VALID,0,INVALID,110.429,VALID,0,VALID,23.5186,VALID,91,VALID,0.848437,
2014-06-27, 01:52:05,VALID,1011.27,VALID,0,INVALID,110.421,VALID,0,VALID,23.5381,VALID,91,VALID,0.837891,
2014-06-27, 01:53:05,VALID,1011.24,VALID,0,INVALID,110.398,VALID,0.112112,VALID,23.5381,VALID,91,VALID,1.07617,
2014-06-27, 01:54:05,VALID,1011.24,VALID,0,INVALID,110.429,VALID,0.112112,VALID,23.4992,VALID,91,VALID,1.3707,
2014-06-27, 01:55:05,VALID,1011.21,VALID,0,INVALID,110.398,VALID,0,VALID,23.5186,VALID,91,VALID,1.29375,
2014-06-27, 01:56:05,VALID,1011.21,VALID,0,INVALID,110.413,VALID,0,VALID,23.4992,VALID,91,VALID,0.958984,
2014-06-27, 01:57:05,VALID,1011.18,VALID,0,INVALID,110.429,VALID,0,VALID,23.5009,VALID,91,VALID,1.51211,
2014-06-27, 01:58:05,VALID,1011.18,VALID,0,INVALID,110.436,VALID,0,VALID,23.4992,VALID,91,VALID,0.612109,
2014-06-27, 01:59:05,VALID,1011.15,VALID,0,INVALID,110.429,VALID,0.112112,VALID,23.4992,VALID,91,VALID,1.18008,
2014-06-27, 02:00:05,VALID,1011.18,VALID,0,INVALID,110.467,VALID,0,VALID,23.4992,VALID,73,VALID,0.870703,
2014-06-27, 02:01:05,VALID,1011.18,VALID,0,INVALID,110.459,VALID,0,VALID,23.4797,VALID,74,VALID,0.441016,
2014-06-27, 02:02:05,VALID,1011.19,VALID,0,INVALID,110.429,VALID,0,VALID,23.4992,VALID,74,VALID,0.751562,
2014-06-27, 02:03:05,VALID,1011.21,VALID,0,INVALID,110.482,VALID,0,VALID,23.4992,VALID,86,VALID,0.816797,
2014-06-27, 02:04:05,VALID,1011.22,VALID,0,INVALID,110.482,VALID,0,VALID,23.4992,VALID,86,VALID,1.01367,
2014-06-27, 02:05:05,VALID,1011.24,VALID,0,INVALID,110.467,VALID,0,VALID,23.5186,VALID,86,VALID,0.789844,
2014-06-27, 02:06:05,VALID,1011.25,VALID,0,INVALID,110.49,VALID,0.112112,VALID,23.5186,VALID,86,VALID,0.458984,
2014-06-27, 02:07:05,VALID,1011.26,VALID,0,INVALID,110.49,VALID,0,VALID,23.4992,VALID,86,VALID,1.00469,
2014-06-27, 02:08:05,VALID,1011.31,VALID,0,INVALID,110.467,VALID,0,VALID,23.4797,VALID,86,VALID,1.04297,
2014-06-27, 02:09:05,VALID,1011.35,VALID,0,INVALID,110.467,VALID,0,VALID,23.4992,VALID,91,VALID,1.12852,
2014-06-27, 02:10:05,VALID,1011.36,VALID,0,INVALID,110.444,VALID,0,VALID,23.4992,VALID,91,VALID,0.751562,
2014-06-27, 02:11:05,VALID,1011.39,VALID,0,INVALID,110.413,VALID,0,VALID,23.4992,VALID,91,VALID,0.614844,
2014-06-27, 02:12:05,VALID,1011.43,VALID,0,INVALID,110.398,VALID,0,VALID,23.4992,VALID,91,VALID,0.753125,
2014-06-27, 02:13:05,VALID,1011.44,VALID,0,INVALID,110.429,VALID,0.112112,VALID,23.4992,VALID,91,VALID,0.928516,
2014-06-27, 02:14:05,VALID,1011.45,VALID,0,INVALID,110.383,VALID,0.112112,VALID,23.4797,VALID,127,VALID,1.20039,
2014-06-27, 02:15:05,VALID,1011.47,VALID,0,INVALID,110.36,VALID,0,VALID,23.4797,VALID,129,VALID,1.07266,
2014-06-27, 02:16:05,VALID,1011.46,VALID,0,INVALID,110.329,VALID,0,VALID,23.4797,VALID,129,VALID,0.367188,
2014-06-27, 02:17:05,VALID,1011.47,VALID,0,INVALID,110.36,VALID,0,VALID,23.4797,VALID,129,VALID,0.839453,
2014-06-27, 02:18:05,VALID,1011.48,VALID,0,INVALID,110.314,VALID,0,VALID,23.4797,VALID,129,VALID,0.636719,
2014-06-27, 02:19:05,VALID,1011.47,VALID,0,INVALID,110.337,VALID,0.112112,VALID,23.4797,VALID,129,VALID,0.858984,
2014-06-27, 02:20:05,VALID,1011.46,VALID,0,INVALID,110.322,VALID,0,VALID,23.4602,VALID,123,VALID,1.33125,
2014-06-27, 02:21:05,VALID,1011.48,VALID,0,INVALID,110.291,VALID,0,VALID,23.4602,VALID,123,VALID,1.05938,
2014-06-27, 02:22:05,VALID,1011.49,VALID,0,INVALID,110.276,VALID,0.112112,VALID,23.4602,VALID,123,VALID,0.659766,
2014-06-27, 02:23:05,VALID,1011.49,VALID,0,INVALID,110.268,VALID,0,VALID,23.4389,VALID,123,VALID,0.728906,
2014-06-27, 02:24:05,VALID,1011.49,VALID,0,INVALID,110.223,VALID,0.112112,VALID,23.4602,VALID,123,VALID,0.596875,
2014-06-27, 02:25:05,VALID,1011.47,VALID,0,INVALID,110.253,VALID,0.112112,VALID,23.4407,VALID,123,VALID,0.633203,
2014-06-27, 02:26:05,VALID,1011.45,VALID,0,INVALID,110.261,VALID,0.112112,VALID,23.4407,VALID,123,VALID,0.809375,
2014-06-27, 02:27:05,VALID,1011.46,VALID,0,INVALID,110.23,VALID,0,VALID,23.4407,VALID,123,VALID,0.922656,
2014-06-27, 02:28:05,VALID,1011.45,VALID,0,INVALID,110.223,VALID,0,VALID,23.4407,VALID,123,VALID,0.786719,
2014-06-27, 02:29:05,VALID,1011.44,VALID,0,INVALID,110.238,VALID,0,VALID,23.4407,VALID,123,VALID,0.527344,
2014-06-27, 02:30:05,VALID,1011.47,VALID,0,INVALID,110.207,VALID,0.112112,VALID,23.4407,VALID,123,VALID,0.576563,
2014-06-27, 02:31:05,VALID,1011.44,VALID,0,INVALID,110.169,VALID,0,VALID,23.4407,VALID,112,VALID,0.874219,
2014-06-27, 02:32:05,VALID,1011.43,VALID,0,INVALID,110.131,VALID,0.112112,VALID,23.4602,VALID,113,VALID,0.584766,
2014-06-27, 02:33:05,VALID,1011.43,VALID,0,INVALID,110.139,VALID,0.112112,VALID,23.4602,VALID,113,VALID,0.539063,
2014-06-27, 02:34:05,VALID,1011.43,VALID,0,INVALID,110.131,VALID,0.112112,VALID,23.4797,VALID,113,VALID,0.495703,
2014-06-27, 02:35:05,VALID,1011.44,VALID,0,INVALID,110.07,VALID,0,VALID,23.4602,VALID,113,VALID,0.602344,
2014-06-27, 02:36:05,VALID,1011.42,VALID,0,INVALID,110.078,VALID,0.112112,VALID,23.4797,VALID,91,VALID,0.485547,
2014-06-27, 02:37:05,VALID,1011.44,VALID,0,INVALID,110.024,VALID,0,VALID,23.4992,VALID,91,VALID,0.812891,
2014-06-27, 02:38:05,VALID,1011.43,VALID,0,INVALID,109.971,VALID,0,VALID,23.4992,VALID,138,VALID,0.897656,
2014-06-27, 02:39:05,VALID,1011.44,VALID,0,INVALID,109.918,VALID,0,VALID,23.4992,VALID,138,VALID,1.03789,
2014-06-27, 02:40:05,VALID,1011.45,VALID,0,INVALID,109.895,VALID,0,VALID,23.5186,VALID,138,VALID,0.967188,
2014-06-27, 02:41:05,VALID,1011.45,VALID,0,INVALID,109.826,VALID,0.112112,VALID,23.5186,VALID,121,VALID,1.06133,
2014-06-27, 02:42:05,VALID,1011.44,VALID,0,INVALID,109.757,VALID,0.112112,VALID,23.5381,VALID,91,VALID,0.832812,
2014-06-27, 02:43:05,VALID,1011.45,VALID,0,INVALID,109.75,VALID,0.112112,VALID,23.5381,VALID,91,VALID,1.09141,
2014-06-27, 02:44:05,VALID,1011.45,VALID,0,INVALID,109.727,VALID,0,VALID,23.5576,VALID,91,VALID,0.952734,
2014-06-27, 02:45:05,VALID,1011.44,VALID,0,INVALID,109.628,VALID,0,VALID,23.5576,VALID,75,VALID,1.33906,
2014-06-27, 02:46:05,VALID,1011.44,VALID,0,INVALID,109.567,VALID,0.112112,VALID,23.5576,VALID,75,VALID,0.61875,
2014-06-27, 02:47:05,VALID,1011.45,VALID,0,INVALID,109.59,VALID,0,VALID,23.5576,VALID,75,VALID,1.1332,
2014-06-27, 02:48:05,VALID,1011.43,VALID,0,INVALID,109.536,VALID,0,VALID,23.5363,VALID,75,VALID,0.504297,
2014-06-27, 02:49:05,VALID,1011.43,VALID,0,INVALID,109.544,VALID,0,VALID,23.5576,VALID,90,VALID,1.09805,
2014-06-27, 02:50:05,VALID,1011.42,VALID,0,INVALID,109.452,VALID,0.112112,VALID,23.5576,VALID,70,VALID,0.973437,
2014-06-27, 02:51:05,VALID,1011.4,VALID,0,INVALID,109.491,VALID,0.112112,VALID,23.5771,VALID,70,VALID,0.419141,
2014-06-27, 02:52:05,VALID,1011.41,VALID,0,INVALID,109.491,VALID,0.112112,VALID,23.5771,VALID,76,VALID,0.877344,
2014-06-27, 02:53:05,VALID,1011.39,VALID,0,INVALID,109.399,VALID,0.112112,VALID,23.5771,VALID,108,VALID,1.18008,
2014-06-27, 02:54:05,VALID,1011.43,VALID,0,INVALID,109.407,VALID,0.112112,VALID,23.5363,VALID,109,VALID,1.20742,
2014-06-27, 02:55:05,VALID,1011.41,VALID,0,INVALID,109.391,VALID,0.112112,VALID,23.5363,VALID,114,VALID,1.00391,
2014-06-27, 02:56:05,VALID,1011.38,VALID,0,INVALID,109.43,VALID,0,VALID,23.5399,VALID,114,VALID,0.925781,
2014-06-27, 02:57:05,VALID,1011.38,VALID,0,INVALID,109.43,VALID,0,VALID,23.5204,VALID,114,VALID,0.930469,
2014-06-27, 02:58:05,VALID,1011.37,VALID,0,INVALID,109.399,VALID,0,VALID,23.5204,VALID,114,VALID,1.13398,
2014-06-27, 02:59:05,VALID,1011.36,VALID,0,INVALID,109.445,VALID,0,VALID,23.5399,VALID,114,VALID,0.812109,
2014-06-27, 03:00:05,VALID,1011.37,VALID,0,INVALID,109.506,VALID,0,VALID,23.5399,VALID,114,VALID,0.854688,
2014-06-27, 03:01:05,VALID,1011.33,VALID,0,INVALID,109.498,VALID,0,VALID,23.5204,VALID,114,VALID,1.075,
2014-06-27, 03:02:05,VALID,1011.31,VALID,0,INVALID,109.521,VALID,0,VALID,23.5399,VALID,114,VALID,0.673828,
2014-06-27, 03:03:05,VALID,1011.32,VALID,0,INVALID,109.506,VALID,0,VALID,23.5204,VALID,114,VALID,0.439063,
2014-06-27, 03:04:05,VALID,1011.29,VALID,0,INVALID,109.567,VALID,0,VALID,23.5204,VALID,114,VALID,0.248828,
2014-06-27, 03:05:05,VALID,1011.28,VALID,0,INVALID,109.613,VALID,0,VALID,23.5204,VALID,114,VALID,0.0210938,
2014-06-27, 03:06:05,VALID,1011.27,VALID,0,INVALID,109.658,VALID,0,VALID,23.5204,VALID,114,VALID,0.120312,
2014-06-27, 03:07:05,VALID,1011.27,VALID,0,INVALID,109.704,VALID,0,VALID,23.5204,VALID,114,VALID,0.539063,
2014-06-27, 03:08:05,VALID,1011.23,VALID,0,INVALID,109.704,VALID,0,VALID,23.5204,VALID,114,VALID,0.14375,
2014-06-27, 03:09:05,VALID,1011.27,VALID,0,INVALID,109.75,VALID,0,VALID,23.5009,VALID,114,VALID,0.341797,
2014-06-27, 03:10:05,VALID,1011.26,VALID,0,INVALID,109.803,VALID,0,VALID,23.5009,VALID,114,VALID,0.444922,
2014-06-27, 03:11:05,VALID,1011.24,VALID,0,INVALID,109.811,VALID,0,VALID,23.5186,VALID,114,VALID,0.979297,
2014-06-27, 03:12:05,VALID,1011.25,VALID,0,INVALID,109.78,VALID,0,VALID,23.5186,VALID,153,VALID,1.57695,
2014-06-27, 03:13:05,VALID,1011.26,VALID,0,INVALID,109.719,VALID,0,VALID,23.5381,VALID,138,VALID,1.68359,
2014-06-27, 03:14:05,VALID,1011.24,VALID,0,INVALID,109.62,VALID,0,VALID,23.5576,VALID,132,VALID,1.15625,
2014-06-27, 03:15:05,VALID,1011.22,VALID,0,INVALID,109.552,VALID,0,VALID,23.5576,VALID,132,VALID,0.667969,
2014-06-27, 03:16:05,VALID,1011.23,VALID,0,INVALID,109.544,VALID,0,VALID,23.5984,VALID,132,VALID,0.307422,
2014-06-27, 03:17:05,VALID,1011.19,VALID,0,INVALID,109.559,VALID,0,VALID,23.5771,VALID,132,VALID,0,
2014-06-27, 03:18:05,VALID,1011.18,VALID,0,INVALID,109.552,VALID,0,VALID,23.5576,VALID,132,VALID,0.766797,
2014-06-27, 03:19:05,VALID,1011.19,VALID,0,INVALID,109.574,VALID,0,VALID,23.5576,VALID,132,VALID,0.562109,
2014-06-27, 03:20:05,VALID,1011.2,VALID,0,INVALID,109.529,VALID,0,VALID,23.5576,VALID,132,VALID,0.433594,
2014-06-27, 03:21:05,VALID,1011.16,VALID,0,INVALID,109.513,VALID,0,VALID,23.5381,VALID,132,VALID,0.302734,
2014-06-27, 03:22:05,VALID,1011.16,VALID,0,INVALID,109.483,VALID,0,VALID,23.5576,VALID,132,VALID,0.858594,
2014-06-27, 03:23:05,VALID,1011.17,VALID,0,INVALID,109.422,VALID,0,VALID,23.5576,VALID,132,VALID,0.882813,
2014-06-27, 03:24:05,VALID,1011.17,VALID,0,INVALID,109.437,VALID,0,VALID,23.5576,VALID,132,VALID,0.719531,
2014-06-27, 03:25:05,VALID,1011.15,VALID,0,INVALID,109.437,VALID,0,VALID,23.5576,VALID,117,VALID,1.35195,
2014-06-27, 03:26:05,VALID,1011.14,VALID,0,INVALID,109.391,VALID,0,VALID,23.5381,VALID,117,VALID,0.950391,
2014-06-27, 03:27:05,VALID,1011.14,VALID,0,INVALID,109.399,VALID,0,VALID,23.5381,VALID,117,VALID,1.04336,
2014-06-27, 03:28:05,VALID,1011.12,VALID,0,INVALID,109.376,VALID,0,VALID,23.5381,VALID,114,VALID,0.949219,
2014-06-27, 03:29:05,VALID,1011.13,VALID,0,INVALID,109.308,VALID,0,VALID,23.5186,VALID,127,VALID,1.11602,
2014-06-27, 03:30:05,VALID,1011.14,VALID,0,INVALID,109.323,VALID,0,VALID,23.5186,VALID,127,VALID,1.2207,
2014-06-27, 03:31:05,VALID,1011.14,VALID,0,INVALID,109.361,VALID,0,VALID,23.5204,VALID,127,VALID,0.401172,
2014-06-27, 03:32:05,VALID,1011.14,VALID,0,INVALID,109.308,VALID,0,VALID,23.4992,VALID,127,VALID,1.02891,
2014-06-27, 03:33:05,VALID,1011.14,VALID,0,INVALID,109.353,VALID,0,VALID,23.5009,VALID,127,VALID,0.576563,
2014-06-27, 03:34:05,VALID,1011.16,VALID,0,INVALID,109.414,VALID,0,VALID,23.4992,VALID,127,VALID,0.524609,
2014-06-27, 03:35:05,VALID,1011.16,VALID,0,INVALID,109.445,VALID,0,VALID,23.4992,VALID,127,VALID,0.275781,
2014-06-27, 03:36:05,VALID,1011.16,VALID,0,INVALID,109.483,VALID,0,VALID,23.5009,VALID,97,VALID,0.916406,
2014-06-27, 03:37:05,VALID,1011.17,VALID,0,INVALID,109.529,VALID,0,VALID,23.4797,VALID,101,VALID,0.449219,
2014-06-27, 03:38:05,VALID,1011.16,VALID,0,INVALID,109.529,VALID,0,VALID,23.4797,VALID,101,VALID,0.385938,
2014-06-27, 03:39:04,VALID,1011.18,VALID,0,INVALID,109.567,VALID,0,VALID,23.4797,VALID,101,VALID,0.492578,